Gulfport, MS

12:07 AM CST on February 08, 2016 (GMT -0600)
Gulfport-Biloxi Regional

Weather History for KGPT - May, 2014

Change the Weather History Date:

Monday, May 5, 2014

  Actual Average Record
Temperature  
Mean Temperature 74 °F -  
Max Temperature 84 °F 80 °F 88 °F (1982)
Min Temperature 63 °F 61 °F 45 °F (1954)
Cooling Degree Days 8    
Growing Degree Days 24 (Base 50)    
Moisture  
Dew Point 57 °F    
Average Humidity 56    
Maximum Humidity 87    
Minimum Humidity 29    
Precipitation  
Precipitation 0.00 in - - ()
Sea Level Pressure  
Sea Level Pressure 30.04 in    
Wind  
Wind Speed 4 mph (SW)    
Max Wind Speed 12 mph    
Max Gust Speed -    
Visibility 9 miles    
Events      
Averages and records for this station are not official NWS values.
T = Trace of Precipitation, MM = Missing Value Source: NWS Daily Summary

Daily Weather History Graph

Daily Weather History Graph

Search for Another Location

Airport or City:

Trip Planner

Search our weather history database for the weather conditions in past years. The results will help you decide how hot, cold, wet, or windy it might be!

Date:

Astronomy

May. 05, 2014 Rise Set
Actual Time 6:09 AM CDT 7:36 PM CDT
Civil Twilight 5:43 AM CDT 8:02 PM CDT
Nautical Twilight 5:12 AM CDT 8:33 PM CDT
Astronomical Twilight 4:40 AM CDT 9:05 PM CDT
Moon 11:27 AM CDT (5/5) 12:21 AM CDT (5/5)
Length of Visible Light 14h 19m
Length of Day
13h 27m
Waxing Crescent, 37% of the Moon is Illuminated
May 5
Waxing Crescent
May 6
First Quarter
May 14
Full
May 21
Last Quarter
May 28
New

Hourly Weather History & Observations

Time (CDT) Temp. Heat Index Dew Point Humidity Pressure Visibility Wind Dir Wind Speed Gust Speed Precip Events Conditions
12:53 AM 73.0 °F - 63.0 °F 71% 30.08 in 10.0 mi WSW 3.5 mph - N/A   Clear
1:53 AM 71.1 °F - 63.0 °F 75% 30.07 in 10.0 mi Calm Calm - N/A   Clear
2:53 AM 66.9 °F - 62.1 °F 84% 30.06 in 10.0 mi Calm Calm - N/A   Clear
3:53 AM 66.0 °F - 61.0 °F 84% 30.06 in 8.0 mi Calm Calm - N/A   Clear
4:53 AM 64.0 °F - 60.1 °F 87% 30.05 in 7.0 mi Calm Calm - N/A   Clear
5:53 AM 63.0 °F - 59.0 °F 87% 30.06 in 7.0 mi Calm Calm - N/A   Partly Cloudy
6:53 AM 64.0 °F - 59.0 °F 84% 30.08 in 7.0 mi Calm Calm - N/A   Clear
7:53 AM 69.1 °F - 61.0 °F 75% 30.08 in 10.0 mi WNW 5.8 mph - N/A   Clear
8:53 AM 75.0 °F - 55.0 °F 50% 30.07 in 10.0 mi WNW 4.6 mph - N/A   Clear
9:53 AM 80.1 °F - 50.0 °F 35% 30.08 in 10.0 mi NNW 5.8 mph - N/A   Clear
10:53 AM 82.9 °F - 48.9 °F 31% 30.07 in 10.0 mi NW 5.8 mph - N/A   Clear
11:53 AM 84.9 °F - 48.9 °F 29% 30.06 in 10.0 mi North 4.6 mph - N/A   Clear
12:53 PM 82.4 °F 81.4 °F 53.6 °F 37% 30.05 in 10.0 mi South 9.2 mph - N/A   Clear
1:53 PM 84.0 °F - 52.0 °F 33% 30.04 in 7.0 mi South 9.2 mph - N/A   Clear
2:53 PM 84.0 °F - 52.0 °F 33% 30.03 in 10.0 mi Variable 6.9 mph - N/A   Clear
3:53 PM 82.9 °F - 48.0 °F 29% 30.00 in 10.0 mi SSW 11.5 mph - N/A   Clear
4:53 PM 82.0 °F - 52.0 °F 35% 29.99 in 10.0 mi Variable 6.9 mph - N/A   Clear
5:53 PM 81.0 °F 81.3 °F 59.0 °F 47% 29.99 in 10.0 mi South 5.8 mph - N/A   Clear
6:53 PM 79.0 °F - 57.0 °F 47% 29.99 in 10.0 mi South 5.8 mph - N/A   Clear
7:53 PM 75.9 °F - 62.1 °F 62% 29.99 in 10.0 mi South 4.6 mph - N/A   Clear
8:53 PM 75.9 °F - 62.1 °F 62% 29.99 in 10.0 mi SSW 3.5 mph - N/A   Clear
9:53 PM 75.9 °F - 60.1 °F 58% 29.99 in 10.0 mi South 4.6 mph - N/A   Clear
10:53 PM 75.2 °F - 59.0 °F 57% 30.00 in 10.0 mi SSW 4.6 mph - N/A   Clear
11:53 PM 73.9 °F - 57.9 °F 57% 30.00 in 10.0 mi SW 4.6 mph - N/A   Clear